Regional Weather Roundup
Issued by NWS

Home | Current Version | Previous Version | Graphics & Text | Print | Product List | Glossary On
Versions: 1 2 3 4 5 6 7 8 9 10 11 12 13 14 15 16 17 18 19 20 21 22 23 24 25 26 27 28 29 30 31 32 33 34 35 36 37 38 39 40 41 42 43 44 45 46 47 48 49 50
919
ASUS43 KOAX 242202
RWRNE

WEATHER ROUNDUP FOR NEBRASKA
NATIONAL WEATHER SERVICE OMAHA NE
500 PM CDT FRI MAR 24 2017

NOTES: SATELLITE DATA IS BEING USED TO AUGMENT CLOUD COVER ABOVE
       12000 FEET.
       "FAIR" INDICATES FEW OR NO CLOUDS BELOW 12,000 FEET WITH NO
       SIGNIFICANT WEATHER AND/OR OBSTRUCTIONS TO VISIBILITY.

  * THESE STATIONS DO NOT REPORT WEATHER SUCH AS RAIN...SNOW OR FOG.

NEZ001>004-019>022-054>056-242300-
NEBRASKA PANHANDLE

CITY           SKY/WX    TMP DP  RH WIND       PRES   REMARKS
SCOTTSBLUFF    CLOUDY    59  26  28 NE18      30.09S
ALLIANCE       CLOUDY    55  28  35 NE18G26   30.07
CHADRON        PTSUNNY   60  28  29 NE6       30.08S
KIMBALL        CLOUDY    53  32  45 NE17G23   30.10S
SIDNEY         PTSUNNY   55  31  39 NE16G25   30.09R
$$

NEZ057>060-069>072-079>082-242300-
SOUTHWEST NEBRASKA

CITY           SKY/WX    TMP DP  RH WIND       PRES   REMARKS
NORTH PLATTE   LGT RAIN  46  39  76 NE8       30.06R
IMPERIAL       LGT RAIN  44  39  82 N18       30.07R
LEXINGTON      RAIN      40  38  92 N16       30.02R WCI  32
MCCOOK         CLOUDY    41  40  96 N18       30.01S
OGALLALA       CLOUDY    53  36  53 NE18      30.06S
$$

NEZ005>010-023>029-035>040-094-242300-
NORTH CENTRAL NEBRASKA

CITY           SKY/WX    TMP DP  RH WIND       PRES   REMARKS
VALENTINE      PTSUNNY   57  30  35 NE20G26   30.06S
AINSWORTH      CLOUDY    51  36  56 NE17G23   30.05F
BROKEN BOW     LGT RAIN  43  40  89 NE14      30.02R
O`NEILL        CLOUDY    45  41  85 N21       30.03F
ORD            RAIN      41  37  86 N15       30.03R FOG
THEDFORD       CLOUDY    51  36  56 NE21G28   30.05S
$$

NEZ041-046>049-061>064-073>077-083>087-242300-
SOUTH CENTRAL NEBRASKA

CITY           SKY/WX    TMP DP  RH WIND       PRES   REMARKS
GRAND ISLAND   LGT RAIN  39  39 100 N15G23    29.99R FOG     WCI  31
AURORA         LGT RAIN  40  38  95 N21G26    29.97S WCI  30
HASTINGS       CLOUDY    41  38  89 N23       29.97R
HEBRON         CLOUDY    45  41  86 N20G25    29.93R
HOLDREGE       CLOUDY    40  38  91 N20G26    29.98R WCI  31
KEARNEY *      CLOUDY    39  36  87 N20       29.99S WCI  30
YORK           MIX PCPN  41  41 100 N24G30    29.95F
$$

NEZ011>018-030>034-042>045-242300-
NORTHEAST NEBRASKA

CITY           SKY/WX    TMP DP  RH WIND       PRES   REMARKS
NORFOLK        CLOUDY    40  37  89 N18       30.00R WCI  31
ALBION         CLOUDY    42  38  84 N10G18    30.02R
BLAIR          CLOUDY    44  42  92 N7        29.98R FOG
FREMONT        DRIZZLE   42  41  99 N7        29.99R
TEKAMAH        CLOUDY    43  40  89 N15       29.98R FOG
WAYNE          CLOUDY    41  40  97 N17G23    30.01F
$$

NEZ050>053-065>068-078-088>093-242300-
SOUTHEAST NEBRASKA

CITY           SKY/WX    TMP DP  RH WIND       PRES   REMARKS
LINCOLN        CLOUDY    44  42  93 NE22G32   29.95F
OMAHA EPPLEY   CLOUDY    45  40  82 N12       29.97R HAZE
BEATRICE       CLOUDY    47  44  90 N18G29    29.90S
FALLS CITY     RAIN      56  56 100 N10       29.86S FOG
NEBRASKA CITY  LGT RAIN  47  46  95 N18       29.92R
PLATTSMOUTH    LGT RAIN  45  42  88 N13G18    29.93F
$$

NEZ044-045-051>053-067-242300-
OMAHA AREA

CITY           SKY/WX    TMP DP  RH WIND       PRES   REMARKS
OMAHA EPPLEY   CLOUDY    45  40  82 N12       29.97R HAZE
BLAIR          CLOUDY    44  42  92 N7        29.98R FOG
FREMONT        DRIZZLE   42  41  99 N7        29.99R
MILLARD        RAIN      47  44  90 N5        29.96S
OFFUTT AFB     HVY RAIN  45  42  90 N13       29.94S FOG
PLATTSMOUTH    LGT RAIN  45  42  88 N13G18    29.93F
WAHOO          HVY RAIN  42  40  93 N14       29.99R
$$




USA.gov is the U.S. government's official web portal to all federal, state and local government web resources and services.